When you browse on this site, cookies collect data to enhance your experience and personalize the content and advertising you see.
Visit our Privacy Policy to learn more. By continuing to use the site, you agree to this use of cookies and data.
  • In Portugal
  • List of Countries
  • For 7 days
  • Water Temperature
  • Satellite Maps
  • Weather Map
  • Weather Widgets
  • user-avatar
    Login

    Hourly Weather Resht

    Today, 21 January, Monday

    Time Temperature Precipitation Wind Pressure Humidity
    00:00 +8°C° 0 mm 1 mps 770 mmHg 51%
    01:00 +8°C° 0 mm 1 mps 770 mmHg 50%
    02:00 +8°C° 0 mm 1 mps 770 mmHg 49%
    03:00 +8°C° 0 mm 1 mps 770 mmHg 48%
    04:00 +7°C° 0 mm 1 mps 770 mmHg 47%
    05:00 +7°C° 0 mm 1 mps 770 mmHg 46%
    06:00 +7°C° 0 mm 1 mps 770 mmHg 45%
    07:00 +8°C° 0 mm 1 mps 770 mmHg 42%
    08:00 +9°C° 0 mm 1 mps 770 mmHg 40%
    09:00 +10°C° 0 mm 0 mps 770 mmHg 37%
    10:00 +12°C° 0 mm 1 mps 769 mmHg 35%
    11:00 +13°C° 0 mm 1 mps 769 mmHg 34%
    12:00 +14°C° 0 mm 2 mps 768 mmHg 32%
    13:00 +14°C° 0 mm 2 mps 767 mmHg 36%
    14:00 +13°C° 0 mm 3 mps 767 mmHg 40%
    15:00 +13°C° 0 mm 3 mps 766 mmHg 43%
    16:00 +12°C° 0 mm 3 mps 766 mmHg 50%
    17:00 +12°C° 0 mm 2 mps 767 mmHg 57%
    18:00 +9°C° 0 mm 2 mps 767 mmHg 64%
    19:00 +9°C° 0 mm 2 mps 766 mmHg 61%
    20:00 +9°C° 0 mm 2 mps 766 mmHg 58%
    21:00 +10°C° 0 mm 1 mps 766 mmHg 55%
    22:00 +10°C° 0 mm 1 mps 766 mmHg 51%
    23:00 +9°C° 0 mm 1 mps 765 mmHg 48%

    Tomorrow, 22 January, Tuesday

    Time Temperature Precipitation Wind Pressure Humidity
    00:00 +9°C° 0 mm 1 mps 765 mmHg 45%
    01:00 +9°C° 0 mm 1 mps 765 mmHg 43%
    02:00 +9°C° 0 mm 1 mps 765 mmHg 42%
    03:00 +9°C° 0 mm 1 mps 764 mmHg 41%
    04:00 +9°C° 0 mm 1 mps 764 mmHg 41%
    05:00 +8°C° 0 mm 1 mps 764 mmHg 41%
    06:00 +8°C° 0 mm 1 mps 764 mmHg 41%
    07:00 +10°C° 0 mm 1 mps 764 mmHg 39%
    08:00 +11°C° 0 mm 1 mps 764 mmHg 38%
    09:00 +11°C° 0 mm 0 mps 764 mmHg 36%
    10:00 +13°C° 0 mm 1 mps 764 mmHg 34%
    11:00 +14°C° 0 mm 1 mps 763 mmHg 32%
    12:00 +16°C° 0 mm 1 mps 763 mmHg 30%
    13:00 +15°C° 0 mm 2 mps 762 mmHg 34%
    14:00 +15°C° 0 mm 2 mps 762 mmHg 37%
    15:00 +15°C° 0 mm 2 mps 762 mmHg 40%
    16:00 +14°C° 0 mm 2 mps 763 mmHg 47%
    17:00 +13°C° 0 mm 1 mps 763 mmHg 54%
    18:00 +11°C° 0 mm 1 mps 764 mmHg 60%
    19:00 +11°C° 0 mm 1 mps 764 mmHg 61%
    20:00 +10°C° 0 mm 0 mps 764 mmHg 61%
    21:00 +9°C° 0 mm 0 mps 765 mmHg 61%
    22:00 +9°C° 0 mm 0 mps 765 mmHg 60%
    23:00 +9°C° 0 mm 0 mps 765 mmHg 59%

    Day after tomorrow, 23 January, Wednesday

    Time Temperature Precipitation Wind Pressure Humidity
    00:00 +9°C° 0 mm 0 mps 766 mmHg 58%
    01:00 +8°C° 0 mm 0 mps 766 mmHg 58%
    02:00 +8°C° 0 mm 0 mps 766 mmHg 58%
    03:00 +8°C° 0 mm 0 mps 766 mmHg 59%
    04:00 +8°C° 0 mm 0 mps 767 mmHg 60%
    05:00 +7°C° 0 mm 0 mps 767 mmHg 61%
    06:00 +8°C° 0 mm 1 mps 767 mmHg 63%
    07:00 +8°C° 0 mm 0 mps 767 mmHg 61%
    08:00 +9°C° 0 mm 0 mps 768 mmHg 59%
    09:00 +10°C° 0 mm 0 mps 768 mmHg 57%
    10:00 +12°C° 0 mm 1 mps 768 mmHg 55%
    11:00 +13°C° 0 mm 1 mps 767 mmHg 54%
    12:00 +14°C° 0 mm 2 mps 767 mmHg 52%
    13:00 +14°C° 0 mm 2 mps 767 mmHg 55%
    14:00 +12°C° 0 mm 3 mps 767 mmHg 58%
    15:00 +12°C° 0 mm 3 mps 766 mmHg 62%
    16:00 +11°C° 0 mm 3 mps 767 mmHg 69%
    17:00 +10°C° 0 mm 2 mps 767 mmHg 77%
    18:00 +9°C° 0 mm 2 mps 768 mmHg 85%
    19:00 +9°C° 0 mm 2 mps 768 mmHg 85%
    20:00 +10°C° 0 mm 1 mps 768 mmHg 85%
    21:00 +10°C° 0 mm 1 mps 768 mmHg 85%
    22:00 +9°C° 0 mm 1 mps 768 mmHg 82%
    23:00 +9°C° 0 mm 1 mps 768 mmHg 79%

    24 January, Thursday

    Time Temperature Precipitation Wind Pressure Humidity
    00:00 +9°C° 0 mm 1 mps 768 mmHg 77%
    01:00 +9°C° 0 mm 1 mps 768 mmHg 73%
    02:00 +9°C° 0 mm 1 mps 768 mmHg 70%
    03:00 +9°C° 0 mm 1 mps 768 mmHg 67%
    04:00 +9°C° 0 mm 1 mps 768 mmHg 64%
    05:00 +9°C° 0 mm 1 mps 769 mmHg 62%
    06:00 +9°C° 0 mm 1 mps 769 mmHg 60%
    07:00 +10°C° 0 mm 1 mps 769 mmHg 56%
    08:00 +11°C° 0 mm 1 mps 769 mmHg 52%
    09:00 +13°C° 0 mm 1 mps 769 mmHg 48%
    10:00 +14°C° 0 mm 1 mps 768 mmHg 45%
    11:00 +15°C° 0 mm 2 mps 768 mmHg 42%
    12:00 +17°C° 0 mm 2 mps 767 mmHg 39%
    13:00 +17°C° 0 mm 3 mps 767 mmHg 42%
    14:00 +17°C° 0 mm 3 mps 766 mmHg 44%
    15:00 +17°C° 0 mm 3 mps 766 mmHg 46%
    16:00 +14°C° 0 mm 3 mps 766 mmHg 50%
    17:00 +14°C° 0 mm 2 mps 766 mmHg 54%
    18:00 +13°C° 0 mm 2 mps 767 mmHg 59%
    19:00 +13°C° 0 mm 2 mps 767 mmHg 56%
    20:00 +13°C° 0 mm 2 mps 766 mmHg 53%
    21:00 +12°C° 0 mm 2 mps 766 mmHg 50%
    22:00 +12°C° 0 mm 2 mps 766 mmHg 48%
    23:00 +12°C° 0 mm 2 mps 766 mmHg 45%

    25 January, Friday

    Time Temperature Precipitation Wind Pressure Humidity
    00:00 +12°C° 0 mm 2 mps 765 mmHg 43%
    01:00 +12°C° 0 mm 2 mps 765 mmHg 42%
    02:00 +12°C° 0 mm 2 mps 765 mmHg 41%
    03:00 +12°C° 0 mm 2 mps 765 mmHg 40%
    04:00 +12°C° 0 mm 2 mps 765 mmHg 40%
    05:00 +12°C° 0 mm 2 mps 764 mmHg 40%
    06:00 +12°C° 0 mm 2 mps 764 mmHg 39%
    07:00 +13°C° 0 mm 2 mps 764 mmHg 39%
    08:00 +14°C° 0 mm 2 mps 764 mmHg 38%
    09:00 +15°C° 0 mm 2 mps 764 mmHg 37%
    10:00 +17°C° 0 mm 2 mps 763 mmHg 33%
    11:00 +19°C° 0 mm 2 mps 763 mmHg 29%
    12:00 +21°C° 0 mm 2 mps 762 mmHg 25%
    13:00 +21°C° 0 mm 2 mps 762 mmHg 27%
    14:00 +20°C° 0 mm 2 mps 761 mmHg 29%
    15:00 +20°C° 0 mm 2 mps 761 mmHg 32%
    16:00 +19°C° 0 mm 2 mps 761 mmHg 35%
    17:00 +17°C° 0 mm 2 mps 761 mmHg 37%
    18:00 +16°C° 0 mm 1 mps 761 mmHg 40%
    19:00 +16°C° 0 mm 1 mps 761 mmHg 39%
    20:00 +15°C° 0 mm 2 mps 762 mmHg 38%
    21:00 +15°C° 0 mm 2 mps 762 mmHg 37%
    22:00 +15°C° 0 mm 2 mps 762 mmHg 39%
    23:00 +14°C° 0 mm 1 mps 762 mmHg 41%

    26 January, Saturday

    Time Temperature Precipitation Wind Pressure Humidity
    00:00 +14°C° 0 mm 1 mps 762 mmHg 43%
    01:00 +13°C° 0 mm 1 mps 762 mmHg 45%
    02:00 +13°C° 0 mm 1 mps 762 mmHg 47%
    03:00 +12°C° 0 mm 1 mps 762 mmHg 49%
    04:00 +12°C° 0 mm 1 mps 762 mmHg 49%
    05:00 +12°C° 0 mm 1 mps 762 mmHg 49%
    06:00 +12°C° 0 mm 1 mps 763 mmHg 50%
    07:00 +13°C° 0 mm 1 mps 763 mmHg 47%
    08:00 +15°C° 0 mm 1 mps 763 mmHg 44%
    09:00 +16°C° 0 mm 1 mps 763 mmHg 41%
    10:00 +18°C° 0 mm 2 mps 762 mmHg 37%
    11:00 +20°C° 0 mm 2 mps 762 mmHg 34%
    12:00 +21°C° 0 mm 3 mps 761 mmHg 30%
    13:00 +21°C° 0 mm 3 mps 761 mmHg 30%
    14:00 +22°C° 0 mm 3 mps 760 mmHg 30%
    15:00 +22°C° 0 mm 3 mps 760 mmHg 30%
    16:00 +20°C° 0 mm 2 mps 760 mmHg 34%
    17:00 +19°C° 0 mm 2 mps 760 mmHg 37%
    18:00 +17°C° 0 mm 2 mps 761 mmHg 41%
    19:00 +17°C° 0 mm 2 mps 761 mmHg 40%
    20:00 +17°C° 0 mm 2 mps 761 mmHg 39%
    21:00 +17°C° 0 mm 2 mps 761 mmHg 38%
    22:00 +17°C° 0 mm 2 mps 760 mmHg 38%
    23:00 +17°C° 0 mm 2 mps 760 mmHg 37%
    Show more